Notices

What's New in latest Release from April 7th, 2021:

- Updated Glossary, including Speed of Maximum Gust, and Total Hourly Precipitation

- Updated national and regional climate services offices contacts and prices information

- Addition of station inventory lists for 1981-2010, 1971-2000, and 1961-1990 Normals.

If you haven't already, please take our survey and provide feedback about our website: https://eccc.sondage-survey.ca/f/LanguageSelection.aspx?s=442ca660-fcf1-47c0-95a9-59707d6fd709

Hourly Data Report for November 21, 2019

VICTORIA UNIVERSITY CS
BRITISH COLUMBIA
Current Station Operator: ECCC - MSC

48°27'25.200" N
123°18'16.600" W
60.10 m
1018598
71783
WYJ

Download Data

Hourly Data (November 2019)
Hourly Data Report for November 21, 2019
TIME
LST
Temp Definition
°C
Dew Point Definition
°C
Rel Hum Definition
%
Precip. Amount Definition
mm

Wind Dir Definition
10's deg

Wind Spd Definition
km/h
Visibility Definition
km
Stn Press Definition
kPa
Hmdx Definition


Wind Chill Definition


Weather Definition


00:00 5.2 3.0 86 0.0 36 7   101.10     LegendNANA
01:00 5.0 2.5 84 0.0 35 6   101.05     LegendNANA
02:00 5.0 2.6 84 0.0 34 5   101.03     LegendNANA
03:00 5.1 3.1 87 0.0 34 7   101.00     LegendNANA
04:00 4.7 3.0 89 0.0 34 6   100.95     LegendNANA
05:00 4.8 2.5 85 0.0 34 6   100.95     LegendNANA
06:00 4.7 2.7 87 0.0 34 6   100.91     LegendNANA
07:00 4.4 2.6 88 0.0 33 8   100.92     LegendNANA
08:00 4.9 2.5 85 0.0 35 6   100.91     LegendNANA
09:00 5.7 2.6 80 0.0 36 8   100.88     LegendNANA
10:00 7.2 3.7 78 0.0 1 8   100.90     LegendNANA
11:00 7.7 3.8 76 0.2 1 7   100.88     LegendNANA
12:00 8.6 2.1 64 0.0 36 8   100.83     LegendNANA
13:00 9.0 1.7 60 0.0 3 5   100.81     LegendNANA
14:00 9.6 2.7 62 0.0 7 2   100.76     LegendNANA
15:00 8.6 3.3 69 0.0 6 1   100.75     LegendNANA
16:00 7.2 3.3 76 0.0 18 3   100.77     LegendNANA
17:00 4.9 3.4 90 0.0 23 5   100.83     LegendNANA
18:00 5.1 3.6 90 0.0 22 4   100.87     LegendNANA
19:00 5.5 3.2 85 0.0 17 3   100.90     LegendNANA
20:00 4.9 3.8 92 0.0 16 5   100.96     LegendNANA
21:00 3.5 3.0 96 0.0   0   101.06     LegendNANA
22:00 2.7 2.4 98 0.0   0   101.12     LegendNANA
23:00 2.9 2.6 98 0.0 33 5   101.19     LegendNANA

Notes on Data Quality.

Legend

  • E = Estimated
  • M = Missing
  • NA = Not Available*
  • [empty] = Indicates an unobserved value
Date modified: